Content
SEND FEEDBACK

Daily
Averages
Monthly
Summary
United States of America

ST. LOUIS, MISSOURI


Home > North America > United States > Missouri
Elevation: 163 meters     Latitude: 38 45N     Longitude: 090 22W

WEATHER
 
SELECT A DAY
Number of Records: 201,463;   Date Range: 1/1/95 - 12/26/14
 
SHARE

PRINT THIS DATA

[ ← Previous Day ]
WEATHER ALMANAC - 5 APRIL, 2013
[ Next Day → ]
[ °F ]   °C
Weather ElementAverageHighLow
Temperature10.8 °C18.9 °C (4:54 pm)0 °C (6:54 am)
Dewpoint-0.6 °C2.2 °C (11:54 am)-3.3 °C (1:54 am)
Humidity49.9 %82 % (6:54 am)25 % (4:54 pm)
Barometer1019.6 hPa1022.4 hPa (10:54 am)1016.9 hPa (11:54 pm)
Wind Speed4.8 km/h14.8 km/h (10:54 pm)
Weather ElementAverage
Visibility16.1 km
Wind DirectionE (86.5 °)

Weather ElementTotal
Precipitation---
Heating Degree Days8.9 (Base 18.3)
Averaged from 23 records on 5 April, 2013
WEATHER CONDITIONS BREAKOUT
WIND DIRECTION BREAKOUT
WEATHER BY HOUR - 5 APRIL, 2013
[ °F ]   °C
Local TimeTemperatureDewpointHumidityBarometerVisibilityWind DirectionWind SpeedGust SpeedPrecipitationEventsConditions
1:54 AM1.1 °C-3.3 °C73 %1019 hPa16.1 kmCalmClear
2:54 AM1.7 °C-2.8 °C72 %1018.6 hPa16.1 kmCalmClear
3:54 AM1.1 °C-2.8 °C75 %1019 hPa16.1 kmWSW (250°)5.6 km/hClear
4:54 AM0.6 °C-2.8 °C78 %1019.6 hPa16.1 kmCalmClear
5:54 AM0.6 °C-2.8 °C78 %1020.3 hPa16.1 kmWSW (250°)5.6 km/hClear
6:54 AM0 °C-2.8 °C82 %1020.7 hPa16.1 kmCalmClear
7:54 AM3.3 °C0 °C79 %1021.3 hPa16.1 kmCalmClear
8:54 AM8.3 °C1.1 °C61 %1021.7 hPa16.1 kmCalmClear
9:54 AM11.1 °C1.7 °C53 %1021.7 hPa16.1 kmENE (60°)5.6 km/hClear
10:54 AM13.3 °C1.7 °C45 %1022.4 hPa16.1 kmNorth (360°)5.6 km/hClear
11:54 AM15 °C2.2 °C42 %1022.4 hPa16.1 kmNorth (350°)9.3 km/hClear
12:54 PM15.6 °C0.6 °C36 %1021.3 hPa16.1 kmCalmClear
1:54 PM17.8 °C-2.2 °C26 %1020.7 hPa16.1 kmCalmScattered Clouds
2:54 PM18.3 °C-1.1 °C27 %1019.6 hPa16.1 kmNE (40°)9.3 km/hScattered Clouds
3:54 PM18.3 °C-1.7 °C26 %1018.6 hPa16.1 kmENE (60°)9.3 km/hScattered Clouds
4:54 PM18.9 °C-1.7 °C25 %1018.3 hPa16.1 kmCalmScattered Clouds
5:54 PM18.3 °C-1.1 °C27 %1017.9 hPa16.1 kmENE (70°)5.6 km/hClear
6:54 PM15.6 °C1.1 °C38 %1017.9 hPa16.1 kmENE (70°)11.1 km/hMostly Cloudy
7:54 PM12.8 °C2.2 °C49 %1017.9 hPa16.1 kmCalmMostly Cloudy
8:54 PM13.9 °C-0.6 °C37 %1017.9 hPa16.1 kmESE (110°)5.6 km/hClear
9:54 PM14.4 °C0 °C37 %1017.9 hPa16.1 kmESE (120°)11.1 km/hClear
10:54 PM13.9 °C0.6 °C40 %1017.3 hPa16.1 kmSE (130°)14.8 km/hClear
11:54 PM13.9 °C1.1 °C42 %1016.9 hPa16.1 kmESE (120°)13 km/hClear
Hourly data recorded from KSUS, located 0 kilometers away from St. Louis, Missouri







STORIES FROM OUR PARTNERS